Location: Sungai Dangang
(2.7500°N, 113.8333°E)
Time: 19:38:27
(UTC+00:00)

Cosmos 1844 Rocket - Pass Details

Date: 16 May 2021
Orbit: 823 x 846 km, 71.0° (Epoch: 20 June)

Event Time Altitude Azimuth Distance (km) Brightness Sun altitude
Rises 21:11:05 0° 359° (N) 3,384 6.1 -15.5°
Reaches altitude 10° 21:13:41 10° 7° (N) 2,454 5.5 -14.9°
Maximum altitude 21:18:54 39° 74° (ENE) 1,247 4.3 -13.7°
Drops below altitude 10° 21:24:07 10° 142° (SE) 2,463 5.4 -12.5°
Sets 21:26:43 0° 149° (SSE) 3,399 6.0 -11.9°
